This is the latest recevied weather packets stored in our database for station/object PY2CQC-13. If no packets are shown the sender has not sent any weather packets the latest 10 day(s).
| Time | Temp. | Humidity | Pressure | Rain* | Wind** | Luminosity | Snow |
|---|---|---|---|---|---|---|---|
| 1777510925 | 22.78° C | 62% | 1032.7 hPa | - | - | - | - |
| 1777509125 | 23.89° C | 64% | 1033.5 hPa | - | - | - | - |
| 1777507324 | 24.44° C | 67% | 1032.6 hPa | - | - | - | - |
| 1777505524 | 24.44° C | 69% | 1031.7 hPa | - | - | - | - |
| 1777503724 | 25.56° C | 67% | 1031.6 hPa | - | - | - | - |
| 1777501925 | 26.67° C | 66% | 1031.5 hPa | - | - | - | - |
| 1777500125 | 25° C | 71% | 1031.3 hPa | - | - | - | - |
| 1777498325 | 25.56° C | 70% | 1031 hPa | - | - | - | - |
| 1777496525 | 25.56° C | 71% | 1030.8 hPa | - | - | - | - |
| 1777494725 | 25.56° C | 68% | 1030.7 hPa | - | - | - | - |
| 1777492924 | 25.56° C | 67% | 1030.2 hPa | - | - | - | - |
| 1777491124 | 25.56° C | 66% | 1030.7 hPa | - | - | - | - |
| 1777489325 | 25.56° C | 70% | 1031.3 hPa | - | - | - | - |
| 1777487526 | 25.56° C | 69% | 1030.7 hPa | - | - | - | - |
| 1777485725 | 25.56° C | 68% | 1030.1 hPa | - | - | - | - |
| 1777483925 | 25.56° C | 67% | 1030.4 hPa | - | - | - | - |
| 1777482124 | 25.56° C | 67% | 1030.6 hPa | - | - | - | - |
| 1777480325 | 25.56° C | 67% | 1031.3 hPa | - | - | - | - |
| 1777478524 | 25.56° C | 68% | 1031.8 hPa | - | - | - | - |
| 1777476724 | 25° C | 69% | 1032.2 hPa | - | - | - | - |
| 1777474925 | 25° C | 70% | 1032.7 hPa | - | - | - | - |
| 1777473125 | 24.44° C | 72% | 1033.1 hPa | - | - | - | - |
| 1777471326 | 23.89° C | 72% | 1033.3 hPa | - | - | - | - |
| 1777469525 | 23.89° C | 73% | 1033.6 hPa | - | - | - | - |
| 1777467724 | 23.33° C | 73% | 1033.7 hPa | - | - | - | - |
* Rain since midnight (hover to see other rain measurements)
** Current wind speed in m/s (hover to see current wind gust speed)